984  
ASUS43 KJKL 170410  
RWRJKL  
 
EAST KENTUCKY HOURLY WEATHER ROUNDUP  
NATIONAL WEATHER SERVICE JACKSON KY  
1200 AM EDT WED JUL 17 2019  
 
NOTE: "FAIR" INDICATES FEW OR NO CLOUDS BELOW 12,000 FEET WITH  
NO SIGNIFICANT WEATHER AND/OR S TO VISIBILITY
.  
 
* THESE REPORTS ARE NOT UNDER NWS QUALITY CONTROL AND MAY NOT  
REPORT WEATHER SUCH AS PRECIPITATION AND FOG.
 
 
KYZ079-080-083-085-087-088-110-112-115-119-120-170500   
..EASTERN KENTUCKY
 
 
 
CITY SKY/WX TMP DP RH WIND PRES REMARKS
 
JACKSON N/A 78 69 73 VRB3 30.07S  
LONDON N/A 76 71 85 S6 30.08F  
SOMERSET* LGT RAIN 73 68 83 CALM 30.08S  
MONTICELLO* CLOUDY 76 71 85 W14 30.08S  
WILLIAMSBURG* N/A 72 72 100 CALM 30.08F  
MIDDLESBORO* N/A 72 72 100 CALM 30.10F  
HARLAN APT* N/A 72 68 87 CALM 30.12S  
PIKE CO APT* N/A 78 65 65 CALM 30.09S  
BIG SANDY APT* N/A 79 67 66 S5 30.08R  
MOREHEAD APT* MOCLDY 72 70 94 S6 30.06F  
ASHLAND* N/A 77 74 90 CALM 30.01S  

 
 
KYZ035-036-041-042-044-050-067-078-099-170500   
..CENTRAL KENTUCKY
 
 
 
CITY SKY/WX TMP DP RH WIND PRES REMARKS
 
MT STERLING* MOCLDY 72 70 94 SW5 30.06S  
FLEMING/MASON* N/A 77 72 84 S9G17 30.03R  
DANVILLE* MOCLDY 73 68 83 SW7 30.05S  
LEXINGTON N/A 78 67 68 SW12 30.03R  
FRANKFORT N/A 77 71 82 SW15 30.00S  
LOUISVILLE MOCLDY 76 70 82 S13 29.96F  
LEBANON* N/A 75 72 88 S9 30.03F  
GLASGOW* CLOUDY 75 70 86 S6 30.02F  
BOWLING GREEN LGT RAIN 76 71 85 SE5 30.01F  

 
 
KYZ091>093-OHZ055-061-077-WVZ005-015-034-035-042-170500   
..SOUTHERN OHIO/WEST VIRGINIA
 
 
 
CITY SKY/WX TMP DP RH WIND PRES REMARKS
 
COVINGTON CLOUDY 73 70 90 S8 29.97S  
COLUMBUS MOCLDY 74 72 93 VRB5 29.97F  
DAYTON MOCLDY 77 72 84 S9 29.97S  
WILMINGTON LGT RAIN 78 72 81 SW8 29.99R  
HUNTINGTON N/A 79 70 74 CALM 30.03R  
CHARLESTON N/A 76 71 85 CALM 30.05R  
PINEVILLE* N/A 70 66 88 MISG 30.16S  
BECKLEY N/A 74 61 63 SE7 30.17S  
BLUEFIELD N/A 74 64 71 SW6 30.20F  
LOGAN CO APT* N/A 79 64 61 CALM 30.10S  

 
 
VAZ002-007-008-TNZ017-027-036-066-071-170500   
..SOUTHWEST VIRGINIA/EAST TENNESSEE
 
 
 
CITY SKY/WX TMP DP RH WIND PRES REMARKS
 
WISE* N/A 72 61 68 S5 30.20R  
JONESVILLE* N/A 72 68 88 MISG 30.13S  
ABINGDON* N/A 73 68 86 CALM 30.16S  
BRISTOL N/A 77 67 71 CALM 30.13S  
MORRISTOWN* PTCLDY 79 68 69 CALM 30.10S  
SEVIERVILLE* CLEAR 75 68 78 CALM 30.09S  
KNOXVILLE MOCLDY 80 68 66 S6 30.08S  
LAFOLLETTE* CLEAR 73 70 88 CALM 30.12S  
OAK RIDGE N/A 77 68 73 CALM 30.10R  
CROSSVILLE N/A 73 66 78 VRB3 30.14S  
NASHVILLE CLOUDY 79 70 74 S13 30.04S  

 
   
..KEY TO REMARKS
 
 
VSB - VISIBILITY IN MILES  
WCI - WIND CHILL INDEX  
HX - HEAT INDEX  
 

 
 
 
CLICK HERE TO GO TO PREVIOUS BULLETINS.

The Nexlab KY Page Main Text Page